OneWeb SL0650

operational
NORAD ID: 55813 Int'l Des: 2023-029 Owner: ONEWEBN Country: UK Constellation: oneweb
LEOCIRCULARPOLARONEWEB_TYPE

Über OneWeb SL0650

Beschreibung wird geladen...

Live-Position

3D-Globus wird geladen...

Nächste Überflüge

Höhenverlauf

Altitude vs Time

uPlot chart will show altitude changes over time

Zweizeiliger Elementsatz

1 55813U 23029T 26034.18525242 -.00000126 00000-0 -34683-3 0 9990
2 55813 87.9246 331.6525 0001358 87.2597 272.8691 13.19722109141220
Epoch: 3. Feb. 2026 • Age: 10 hours

Aktueller Status

Höhe 1196.0 km
Geschwindigkeit 7.26 km/s
Subsatellitenpunkt 64.26°N, 161.59°E
Startdatum 9. März 2023
Alter 2.9 years
Typ internet

Technische Details

Klassifizierung Payload
Masse 148.00 kg
Trockenmasse 140.00 kg
Gesamtmasse 148.00 kg
Länge 1.30 m
Durchmesser 1.00 m
Spannweite 5.00 m
Form Trapezoid+2 pan
Hersteller ONEWUS
Bus-Typ ARROW
Phasenstatus In Orbit
Besitzer/Staat ONEWEBN/UK

Große Konstellationen

Loading constellations...